This is the latest recevied weather packets stored in our database for station/object OK1TBM-13. If no packets are shown the sender has not sent any weather packets the latest 10 day(s).
| Time | Temp. | Humidity | Pressure | Rain* | Wind** | Luminosity | Snow |
|---|---|---|---|---|---|---|---|
| 1788025200 | 20.56° C | 68% | 1014.2 hPa | 0 mm | - | 8 W/m² | - |
| 1788024901 | 21.67° C | 63% | 1014.2 hPa | 0 mm | - | 11 W/m² | - |
| 1788024302 | 22.22° C | 59% | 1014.2 hPa | 0 mm | - | 17 W/m² | - |
| 1788024001 | 23.33° C | 56% | 1014.2 hPa | 0 mm | - | 21 W/m² | - |
| 1788023701 | 23.33° C | 51% | 1014.2 hPa | 0 mm | - | 23 W/m² | - |
| 1788023401 | 23.89° C | 50% | 1014.2 hPa | 0 mm | - | 26 W/m² | - |
| 1788023101 | 23.89° C | 51% | 1014.2 hPa | 0 mm | - | 32 W/m² | - |
| 1788022801 | 24.44° C | 48% | 1014.2 hPa | 0 mm | - | 44 W/m² | - |
| 1788022501 | 24.44° C | 50% | 1014.2 hPa | 0 mm | - | 33 W/m² | - |
| 1788022201 | 24.44° C | 49% | 1014.2 hPa | 0 mm | - | 34 W/m² | - |
| 1788021901 | 24.44° C | 49% | 1014.2 hPa | 0 mm | - | 65 W/m² | - |
| 1788021601 | 25° C | 48% | 1014.2 hPa | 0 mm | - | 72 W/m² | - |
| 1788021301 | 25° C | 46% | 1014.2 hPa | 0 mm | - | 64 W/m² | - |
| 1788020701 | 24.44° C | 49% | 1014.2 hPa | 0 mm | - | 94 W/m² | - |
| 1788020401 | 25° C | 47% | 1014.2 hPa | 0 mm | - | 115 W/m² | - |
| 1788020101 | 25° C | 48% | 1014.2 hPa | 0 mm | - | 125 W/m² | - |
| 1788019801 | 24.44° C | 48% | 1014.2 hPa | 0 mm | - | 137 W/m² | - |
| 1788019501 | 24.44° C | 48% | 1014.2 hPa | 0 mm | - | 149 W/m² | - |
| 1788018901 | 24.44° C | 47% | 1014.2 hPa | 0 mm | - | 177 W/m² | - |
| 1788018601 | 25.56° C | 47% | 1014.2 hPa | 0 mm | - | 188 W/m² | - |
| 1788018301 | 25° C | 46% | 1014.2 hPa | 0 mm | - | 202 W/m² | - |
| 1788018001 | 25° C | 47% | 1014.2 hPa | 0 mm | - | 216 W/m² | - |
| 1788017701 | 25° C | 45% | 1014.2 hPa | 0 mm | - | 231 W/m² | - |
| 1788017407 | 25.56° C | 46% | 1014.2 hPa | 0 mm | - | 244 W/m² | - |
| 1788017101 | 25° C | 46% | 1014.2 hPa | 0 mm | - | 230 W/m² | - |
* Rain latest hour (hover to see other rain measurements)
** Current wind speed in m/s (hover to see current wind gust speed)